Wind_Speed
8 8 8 7 8 8 8 7 7 7 7 7 8 9 8 7 7 7 7 7 6 5 4 4 3 3 2 1 1 2 2 2 2 2 3 2 2 2 3 2 2 1 1 2 1 2 2 2 2
8 8 8 8 8 9 8 8 8 7 7 8 8 9 9 8 8 8 8 7 7 5 5 4 3 3 2 1 1 1 1 1 1 2 2 3 3 3 3 3 2 2 2 2 2 2 2 2 3
8 9 9 9 9 10 9 8 8 9 8 8 9 9 9 9 8 8 8 8 7 6 5 4 4 2 2 1 1 1 2 1 1 1 2 3 3 3 4 4 4 3 3 3 3 2 2 3 3
9 9 9 10 10 10 9 9 9 10 9 9 9 10 9 9 9 8 8 8 7 7 6 5 3 3 2 1 1 1 1 1 1 1 2 2 3 4 4 4 4 4 3 3 3 2 2 3 3
9 9 9 10 10 10 10 10 10 10 10 10 10 9 9 9 9 9 9 9 8 7 6 5 4 4 2 1 1 1 1 1 1 1 2 2 3 4 4 4 4 4 3 3 3 3 3 3 3
8 9 10 11 10 10 10 10 11 11 11 11 11 10 9 9 10 10 9 9 8 7 6 6 5 4 3 2 0 0 0 1 1 1 2 3 4 4 4 4 4 4 3 3 3 3 3 3 3
9 9 10 11 11 11 11 10 11 11 12 11 11 11 10 10 10 10 9 9 8 7 7 6 6 5 4 3 1 0 0 0 1 1 2 3 4 4 4 4 4 4 3 4 4 3 3 3 3
9 9 10 11 11 12 12 12 11 12 12 11 11 11 11 10 10 10 9 9 8 7 7 6 6 5 3 3 2 1 1 1 1 2 2 3 3 4 4 4 4 4 4 4 4 3 3 4 4
9 10 10 11 11 12 12 12 12 12 12 12 12 11 11 11 11 10 10 9 9 8 7 7 7 5 4 3 2 2 2 1 1 2 2 3 3 4 4 4 4 4 4 4 3 3 4 4 4
9 10 11 11 11 11 12 12 13 13 13 13 12 12 12 12 11 10 10 10 9 8 8 8 7 6 5 4 3 2 2 2 2 2 2 2 3 4 4 4 4 4 4 4 4 4 4 4 4
8 9 10 11 11 11 12 12 13 13 13 13 13 12 12 12 11 11 11 10 9 8 9 8 7 6 5 4 3 3 2 3 2 2 2 2 3 4 4 4 5 5 4 4 4 4 4 5 5
8 9 10 10 11 11 12 12 12 13 13 14 14 13 13 13 12 12 11 10 9 9 9 9 8 6 5 4 3 2 2 2 2 2 2 2 3 3 4 4 4 5 5 5 5 5 5 5 5
8 8 9 9 10 11 11 12 12 13 14 14 14 14 14 13 13 12 11 11 11 10 9 9 8 7 6 5 3 2 1 1 1 1 1 2 2 3 4 4 4 4 5 5 5 5 5 5 5
8 8 9 9 9 10 10 11 12 13 14 14 13 14 14 13 13 12 11 11 11 10 10 8 8 7 6 5 3 3 2 1 1 1 1 2 2 2 3 4 4 5 5 5 5 5 5 5 5
7 8 9 9 9 10 10 10 11 11 12 13 13 13 13 13 13 12 12 11 10 10 9 9 8 7 6 5 4 3 2 2 2 2 1 1 1 2 3 3 4 5 5 5 5 5 5 5 5
7 7 8 9 10 10 10 10 11 12 12 12 13 13 13 13 12 12 12 11 11 10 9 8 8 7 7 6 5 4 3 3 2 2 1 1 1 1 2 3 4 5 5 5 5 5 5 5 5
6 7 7 9 10 10 10 10 11 12 12 13 13 13 13 13 12 12 12 11 11 10 9 8 7 7 7 7 6 5 4 3 2 2 1 1 1 1 2 3 4 4 5 5 5 5 5 5 5
6 7 7 8 9 10 10 10 11 12 12 13 13 12 12 12 12 12 11 11 10 10 9 9 8 7 7 7 6 6 5 4 3 2 1 1 1 1 2 3 3 4 5 5 5 5 5 5 5
6 7 7 7 8 9 9 9 11 12 13 13 12 12 13 13 12 12 11 10 10 9 8 9 8 7 7 7 7 6 5 4 4 3 2 2 1 1 2 2 3 4 4 5 5 5 5 5 5
7 7 7 7 7 8 9 9 10 12 12 14 13 13 13 13 12 12 11 10 10 9 8 8 8 8 7 7 7 6 5 5 4 3 3 3 2 2 2 3 3 4 4 4 5 5 5 5 5
7 7 7 7 7 7 8 9 10 11 11 13 14 14 13 13 13 13 11 10 10 9 9 8 8 8 8 7 7 6 5 5 5 4 4 3 3 3 3 3 3 4 4 4 4 5 5 5 5
7 7 7 7 7 7 8 9 10 11 12 13 13 13 13 13 13 12 11 10 10 9 9 9 8 8 8 8 7 7 6 6 5 5 4 4 3 3 3 3 3 4 4 5 4 5 4 4 5
7 6 6 6 6 7 8 9 10 11 13 13 13 13 13 13 13 12 11 11 10 9 9 10 9 8 8 8 8 8 7 7 6 6 5 4 4 4 3 3 4 4 4 5 4 4 4 4 5
7 6 6 6 6 7 8 9 10 12 12 13 13 14 13 13 13 12 12 11 10 10 10 9 9 9 9 9 9 8 8 7 7 6 6 5 4 4 4 4 4 4 5 5 5 5 5 4 4
6 7 6 6 6 7 7 9 10 12 12 12 13 13 13 13 13 13 13 13 12 11 10 9 9 9 9 9 9 9 9 8 8 7 6 6 5 5 5 5 5 5 5 5 5 5 5 5 5
6 7 7 7 7 7 7 8 10 10 12 12 13 13 13 14 14 14 14 13 12 12 10 10 10 9 9 9 10 10 9 9 8 7 7 6 6 6 6 6 6 6 6 6 5 6 6 6 6
7 8 8 8 7 8 8 8 9 10 11 11 12 13 13 14 15 15 15 14 13 12 11 11 11 10 10 10 10 10 10 9 9 8 8 8 7 7 7 7 7 7 7 7 7 6 7 6 6
7 7 7 7 8 7 7 8 10 10 11 11 12 13 14 14 15 15 15 15 14 13 13 12 11 11 11 11 11 10 10 9 9 9 9 9 8 8 8 8 8 8 8 8 8 8 8 8 8
6 7 7 8 8 8 8 9 10 11 11 12 12 13 14 15 15 15 15 15 14 13 13 13 12 12 12 12 12 11 11 11 10 10 9 10 10 10 10 10 10 10 9 9 9 9 9 10 10
8 7 8 8 8 9 9 10 10 11 11 12 13 13 13 14 14 14 14 14 14 14 14 13 13 13 13 13 13 12 12 12 12 11 11 11 11 11 11 11 11 11 10 10 10 10 10 11 12
Wind_Direction
223 218 214 211 210 212 214 213 209 204 197 186 180 180 179 176 177 178 171 170 163 158 154 147 136 132 129 137 134 121 112 111 97 77 76 71 57 53 34 23 13 357 337 331 310 295 300 279 255
221 217 214 212 211 212 212 211 209 204 199 192 188 187 184 186 187 186 178 173 168 166 165 158 151 147 139 133 101 120 141 146 107 75 71 56 46 36 22 8 354 339 326 315 301 288 293 278 262
220 213 215 212 208 210 209 208 208 202 196 195 193 188 190 190 189 186 184 179 176 176 173 170 172 167 163 152 104 147 167 170 128 80 65 49 35 25 12 2 351 337 326 311 302 293 289 279 269
222 220 219 214 211 211 209 207 205 201 196 196 194 191 193 196 193 192 189 189 189 190 185 182 181 183 186 154 109 105 151 132 90 56 35 28 18 14 9 356 352 341 325 317 310 296 282 277 266
222 219 218 218 215 212 209 207 205 202 205 202 198 198 198 200 198 197 194 196 196 192 192 193 194 197 195 166 123 110 105 91 58 27 18 9 9 6 356 350 351 345 332 325 312 297 277 269 265
219 217 216 217 214 215 212 210 210 208 207 207 207 206 204 202 201 200 195 196 198 198 202 202 207 209 204 203 123 224 72 45 19 13 9 12 8 4 1 355 353 354 342 331 323 309 288 280 279
221 218 215 215 213 213 212 211 213 212 210 210 209 210 212 210 203 198 196 197 197 199 201 207 213 215 217 216 223 216 154 279 1 12 354 358 4 7 3 357 351 350 341 328 322 317 302 295 289
223 220 215 214 213 213 213 214 214 209 207 207 209 212 214 215 207 200 199 195 194 195 199 207 209 214 220 227 235 268 284 253 294 335 339 349 357 2 4 2 353 345 334 326 318 312 306 301 294
220 217 215 214 213 215 215 215 214 212 211 210 210 211 211 209 203 199 200 198 198 200 204 207 211 215 219 223 237 261 269 260 281 319 339 346 353 355 358 357 354 348 337 332 325 317 308 301 296
216 213 212 212 214 217 217 216 216 214 213 213 213 213 212 207 200 199 200 196 198 203 206 204 207 215 218 218 231 250 261 267 284 298 317 341 351 355 352 351 352 351 348 343 333 322 315 310 305
212 210 211 213 213 217 220 216 215 213 214 214 213 213 211 209 204 201 200 198 201 205 205 203 208 213 212 210 224 240 258 269 278 294 315 332 345 356 355 356 354 353 349 341 334 329 323 316 311
209 209 208 210 210 215 219 219 214 211 213 214 214 211 210 208 204 203 203 202 204 206 205 208 210 207 206 208 220 239 267 274 283 296 311 328 344 352 353 357 358 352 347 344 337 334 331 321 314
208 206 205 208 210 214 219 218 216 212 212 214 215 212 207 208 206 207 208 209 208 209 209 211 203 206 208 207 217 238 269 280 304 321 317 315 333 346 353 2 2 357 352 349 346 341 336 330 325
207 207 207 208 208 210 216 217 212 210 211 213 212 208 207 209 207 207 208 210 211 208 205 203 204 209 209 207 217 230 250 264 283 313 310 309 327 350 6 7 8 5 360 353 348 344 338 332 327
204 208 209 209 210 211 215 215 207 204 205 208 210 206 207 207 205 206 207 206 207 208 203 203 204 208 213 212 218 226 236 244 262 286 307 319 346 16 16 17 17 14 7 358 351 346 341 335 327
207 210 213 212 213 212 215 216 211 205 204 205 206 204 204 205 203 204 205 204 205 205 204 207 207 210 214 214 214 221 229 235 257 279 298 332 4 27 20 18 16 11 7 5 1 355 352 349 340
204 207 210 212 214 216 218 221 214 209 206 205 209 204 199 199 198 201 202 204 204 207 209 211 208 213 218 217 214 220 225 232 248 256 274 325 350 18 8 6 7 8 10 8 4 1 357 354 352
204 207 209 211 211 212 215 219 216 212 208 204 202 199 198 199 198 197 202 205 205 207 210 212 212 216 216 213 217 220 223 231 234 234 256 274 295 324 345 352 358 3 5 5 5 1 357 356 356
207 206 211 213 212 211 213 216 216 212 208 201 201 200 200 200 199 200 201 201 199 203 207 208 210 214 213 215 218 221 228 233 232 235 243 257 273 295 321 338 349 355 357 1 2 360 358 358 357
217 213 218 218 214 213 212 215 217 212 208 203 202 201 201 200 200 204 201 199 203 205 209 207 208 211 215 215 219 223 228 229 232 233 240 254 265 282 306 327 340 348 350 353 359 0 1 2 359
221 217 213 214 215 216 217 215 213 211 210 206 203 202 202 203 207 207 204 206 208 208 210 210 211 213 219 220 223 225 227 227 226 227 234 246 255 278 300 318 331 338 339 341 344 351 353 355 354
219 220 214 213 214 216 217 214 214 212 209 204 204 205 208 208 207 206 208 208 209 211 216 220 216 218 221 223 225 226 227 225 224 230 237 243 251 276 297 310 321 329 332 333 335 343 345 345 347
214 220 218 217 217 217 220 213 216 210 207 204 205 207 209 208 206 207 208 211 214 217 221 226 226 224 225 226 228 229 226 223 224 233 241 245 251 268 287 300 311 320 327 330 332 337 341 340 342
217 218 218 219 218 225 227 217 212 207 206 208 209 211 211 210 209 210 213 216 218 222 225 229 233 228 229 230 231 233 230 228 228 237 243 244 249 264 279 293 303 309 317 322 327 330 336 337 334
220 218 218 218 219 225 228 223 217 213 211 212 212 213 213 210 211 215 220 220 222 224 228 231 233 231 232 232 232 233 233 233 234 238 243 245 253 263 273 285 295 300 306 311 315 320 329 331 331
222 217 213 219 226 230 228 228 227 222 219 218 217 219 220 216 218 220 225 226 227 228 230 233 237 235 235 236 234 235 235 233 235 240 244 247 254 261 271 282 288 291 293 296 300 307 315 319 325
221 216 219 223 231 234 231 230 228 226 220 218 219 221 222 222 223 225 226 226 229 230 233 237 239 239 238 237 234 236 237 234 238 243 247 249 254 257 265 275 281 285 288 288 291 294 301 307 313
224 221 222 228 235 237 231 230 230 231 229 227 225 223 223 223 223 223 225 227 231 235 236 237 238 239 239 236 234 238 238 237 242 248 250 251 255 258 264 268 274 281 285 285 287 290 294 299 305
235 232 232 236 239 235 235 238 237 236 236 233 229 226 223 223 224 227 229 229 232 235 237 238 239 240 239 237 239 240 241 243 245 248 251 253 259 263 265 268 271 275 280 282 284 288 292 296 301
238 239 237 238 239 236 239 243 239 235 235 233 228 224 221 224 227 228 228 230 232 235 237 238 240 240 241 241 241 242 245 248 249 252 254 259 262 264 267 268 270 272 277 282 285 288 292 296 299
Height
5879 5881 5883 5884 5886 5887 5887 5888 5889 5889 5890 5891 5892 5892 5893 5894 5896 5899 5897 5896 5897 5897 5897 5896 5897 5897 5897 5897 5897 5897 5897 5896 5896 5896 5896 5895 5895 5894 5894 5894 5893 5893 5893 5892 5892 5892 5892 5892 5891
5877 5879 5882 5883 5884 5885 5886 5886 5887 5888 5889 5890 5890 5891 5892 5893 5894 5895 5895 5896 5896 5896 5897 5896 5897 5897 5897 5897 5897 5897 5897 5897 5896 5896 5896 5895 5895 5894 5894 5893 5893 5892 5892 5891 5891 5891 5891 5891 5891
5876 5877 5880 5881 5882 5883 5884 5885 5886 5887 5888 5889 5890 5890 5892 5893 5894 5894 5895 5895 5896 5896 5896 5897 5897 5897 5897 5897 5897 5897 5897 5897 5896 5896 5896 5895 5895 5894 5893 5893 5892 5891 5891 5890 5890 5890 5890 5890 5890
5875 5877 5879 5880 5880 5881 5883 5884 5885 5886 5887 5888 5889 5890 5891 5892 5893 5894 5894 5895 5896 5896 5896 5896 5897 5897 5897 5897 5897 5897 5897 5897 5896 5896 5896 5895 5894 5894 5893 5892 5892 5891 5890 5890 5889 5889 5889 5889 5889
5873 5875 5877 5877 5878 5880 5881 5882 5883 5884 5885 5887 5888 5889 5889 5891 5892 5893 5893 5894 5895 5895 5896 5896 5897 5897 5897 5897 5897 5897 5897 5897 5896 5896 5895 5895 5894 5893 5893 5892 5891 5890 5890 5889 5889 5888 5888 5888 5888
5872 5873 5875 5875 5876 5878 5879 5880 5881 5883 5884 5885 5887 5888 5888 5889 5890 5892 5892 5893 5894 5895 5895 5896 5896 5897 5897 5897 5897 5896 5896 5896 5896 5896 5895 5895 5894 5893 5892 5891 5890 5890 5889 5889 5888 5888 5887 5887 5887
5870 5871 5872 5873 5874 5876 5877 5879 5880 5881 5882 5884 5885 5886 5887 5888 5889 5890 5891 5892 5893 5894 5895 5895 5896 5896 5897 5897 5897 5896 5896 5896 5896 5896 5895 5895 5894 5893 5892 5891 5890 5889 5888 5888 5887 5887 5886 5886 5885
5867 5869 5870 5871 5872 5874 5875 5877 5878 5879 5881 5882 5884 5885 5886 5887 5888 5889 5890 5891 5892 5893 5894 5895 5895 5896 5896 5896 5896 5896 5896 5896 5896 5896 5895 5894 5894 5893 5892 5891 5890 5889 5888 5887 5886 5886 5885 5885 5884
5865 5868 5868 5869 5870 5872 5873 5874 5876 5877 5879 5880 5882 5883 5885 5885 5886 5888 5889 5890 5891 5892 5893 5894 5895 5895 5895 5896 5896 5896 5896 5896 5896 5895 5895 5894 5894 5893 5891 5890 5889 5888 5887 5886 5886 5885 5884 5884 5883
5863 5865 5866 5867 5868 5869 5871 5872 5874 5875 5877 5879 5880 5881 5883 5884 5885 5887 5888 5889 5890 5892 5893 5893 5894 5895 5895 5895 5895 5895 5895 5895 5895 5895 5894 5894 5893 5892 5891 5890 5889 5888 5887 5886 5885 5884 5884 5883 5882
5861 5862 5864 5865 5866 5868 5869 5870 5872 5873 5875 5877 5878 5880 5881 5883 5884 5886 5887 5888 5889 5890 5892 5893 5893 5894 5894 5895 5895 5895 5895 5895 5895 5894 5894 5893 5893 5892 5891 5890 5889 5888 5887 5886 5885 5884 5883 5882 5881
5859 5861 5862 5863 5864 5866 5867 5868 5870 5871 5873 5875 5876 5878 5880 5881 5883 5885 5886 5887 5888 5890 5891 5892 5893 5893 5894 5894 5895 5895 5895 5895 5894 5894 5893 5893 5893 5892 5891 5890 5889 5888 5887 5885 5884 5883 5882 5881 5880
5858 5859 5860 5862 5863 5864 5865 5867 5868 5870 5871 5873 5874 5876 5878 5880 5882 5883 5885 5886 5887 5888 5890 5891 5891 5892 5893 5894 5894 5894 5894 5894 5894 5893 5893 5893 5892 5892 5891 5890 5889 5888 5886 5885 5884 5882 5881 5880 5879
5857 5857 5859 5860 5861 5863 5864 5866 5867 5868 5870 5871 5873 5875 5877 5878 5880 5882 5883 5885 5886 5887 5888 5889 5891 5891 5892 5893 5893 5894 5894 5894 5894 5893 5893 5893 5892 5891 5891 5890 5889 5887 5886 5885 5883 5882 5881 5880 5879
5855 5857 5858 5859 5860 5862 5863 5865 5865 5867 5868 5870 5872 5874 5875 5877 5879 5881 5882 5884 5885 5886 5888 5888 5890 5891 5892 5892 5893 5893 5893 5893 5893 5893 5893 5892 5892 5891 5890 5890 5888 5887 5886 5884 5883 5882 5880 5879 5878
5855 5856 5857 5858 5859 5860 5863 5863 5864 5865 5867 5869 5870 5872 5874 5876 5878 5879 5881 5882 5884 5885 5886 5888 5889 5890 5891 5892 5892 5892 5893 5893 5893 5893 5892 5892 5891 5891 5890 5890 5888 5887 5886 5884 5883 5881 5880 5879 5878
5854 5855 5856 5857 5857 5859 5860 5861 5862 5864 5866 5867 5869 5871 5873 5875 5877 5879 5880 5881 5883 5884 5885 5887 5888 5889 5890 5890 5891 5892 5892 5892 5892 5892 5892 5892 5891 5891 5890 5889 5888 5887 5886 5884 5883 5881 5880 5879 5877
5853 5854 5855 5856 5856 5857 5859 5860 5861 5862 5864 5866 5867 5869 5872 5874 5876 5878 5879 5881 5882 5883 5884 5886 5887 5888 5889 5890 5890 5891 5892 5892 5892 5891 5891 5891 5891 5890 5890 5889 5888 5887 5886 5884 5883 5881 5880 5879 5877
5852 5853 5854 5855 5855 5857 5858 5859 5860 5861 5862 5864 5866 5868 5871 5873 5875 5877 5878 5880 5881 5882 5883 5885 5886 5887 5888 5889 5889 5890 5891 5891 5891 5891 5891 5891 5890 5890 5890 5889 5887 5886 5885 5884 5883 5881 5880 5878 5877
5851 5852 5853 5854 5854 5856 5857 5858 5859 5860 5861 5863 5865 5867 5869 5872 5874 5876 5877 5879 5880 5881 5883 5884 5885 5886 5887 5888 5888 5889 5890 5890 5890 5890 5890 5890 5890 5890 5889 5888 5887 5886 5885 5884 5883 5881 5880 5878 5877
5850 5851 5852 5853 5854 5854 5856 5857 5858 5859 5860 5862 5864 5866 5868 5871 5873 5874 5876 5878 5879 5880 5882 5883 5884 5885 5886 5887 5887 5888 5888 5889 5889 5889 5889 5889 5889 5889 5888 5888 5887 5886 5885 5883 5882 5881 5880 5878 5877
5849 5850 5851 5852 5853 5854 5856 5856 5857 5858 5860 5861 5863 5865 5867 5869 5871 5873 5875 5877 5878 5879 5880 5882 5883 5884 5884 5885 5886 5887 5887 5887 5888 5888 5888 5888 5888 5888 5888 5887 5886 5885 5884 5883 5882 5881 5879 5878 5877
5848 5849 5850 5851 5852 5853 5854 5856 5857 5857 5858 5860 5862 5864 5866 5868 5870 5872 5874 5875 5877 5878 5879 5880 5881 5882 5883 5884 5885 5885 5886 5886 5887 5887 5887 5887 5887 5887 5887 5886 5885 5884 5883 5882 5881 5880 5879 5877 5876
5847 5849 5849 5850 5852 5853 5853 5855 5856 5856 5857 5859 5861 5863 5864 5867 5869 5871 5873 5874 5876 5877 5878 5879 5880 5881 5882 5882 5883 5884 5884 5885 5885 5886 5886 5886 5886 5886 5885 5885 5884 5883 5882 5882 5881 5879 5878 5877 5876
5846 5848 5850 5850 5851 5852 5853 5853 5855 5855 5856 5858 5859 5861 5862 5865 5867 5869 5871 5872 5874 5875 5876 5877 5878 5879 5880 5881 5881 5882 5883 5883 5884 5884 5884 5884 5884 5884 5884 5883 5883 5882 5881 5880 5879 5879 5877 5876 5875
5845 5847 5849 5850 5850 5851 5851 5852 5854 5854 5855 5856 5858 5859 5861 5863 5865 5867 5869 5870 5872 5873 5874 5875 5876 5877 5878 5879 5880 5880 5881 5881 5882 5882 5883 5883 5883 5883 5882 5882 5881 5881 5880 5879 5878 5877 5876 5875 5874
5844 5845 5846 5848 5848 5849 5850 5851 5851 5852 5853 5854 5856 5857 5859 5861 5863 5865 5866 5868 5870 5871 5872 5873 5874 5875 5876 5877 5878 5879 5879 5880 5880 5880 5881 5881 5881 5881 5880 5880 5880 5879 5878 5877 5877 5876 5875 5874 5873
5843 5843 5845 5846 5847 5848 5849 5849 5850 5850 5851 5853 5854 5855 5857 5858 5860 5862 5864 5866 5867 5869 5870 5871 5872 5873 5873 5874 5875 5876 5877 5877 5878 5878 5878 5878 5879 5878 5878 5878 5878 5877 5876 5875 5875 5874 5873 5872 5871
5841 5842 5843 5844 5845 5846 5847 5850 5848 5848 5849 5850 5851 5852 5854 5856 5858 5860 5861 5863 5865 5866 5867 5868 5869 5870 5871 5872 5873 5874 5874 5875 5875 5875 5875 5876 5876 5876 5876 5875 5875 5875 5874 5873 5873 5872 5871 5870 5869
5839 5840 5841 5842 5843 5843 5845 5849 5845 5846 5846 5847 5849 5850 5852 5853 5855 5857 5858 5860 5862 5863 5864 5865 5867 5868 5869 5869 5870 5871 5872 5872 5872 5873 5873 5873 5873 5873 5873 5873 5872 5872 5871 5871 5870 5869 5868 5867 5866